Back to catalog

STARLINK-36373

AliveCommunicationsSSO
NORAD 68039·PAYLOAD·🇺🇸 United States

Launched Mar 1, 2026 from Vandenberg Space Force Base

Loading…

Next Passes (next 24 hours)

TLE

FreshSource: CelesTrak SupGP

Epoch: Sep 14, 2026, 15:23 UTC

1 68039C 26040AA  26257.64145833  .00000668  00000+0  20737-4 0  2573
2 68039  97.2856 205.0838 0002249  97.0341 185.3449 15.33441258    13

Track STARLINK-36373 in real time with AllMySat

Download on the App Store